GFSNGP_925_thetae_000.txt.gz
Theta_e
323 326 328 327 327 327 326 325 328 326 330 331 334 335 334 334 335 336 336 341 339 342 343 346 348 350 352 352 351 350 346 346 344 338 338 336 334 334 334 334 335 334 333 333
325 326 326 327 329 329 330 328 330 328 332 331 332 335 334 334 334 335 338 346 340 342 345 347 348 349 350 350 350 348 344 345 343 340 339 337 336 335 335 334 336 334 333 333
325 327 329 330 331 329 330 333 328 327 326 329 334 334 332 331 330 330 332 336 345 345 345 349 350 349 348 347 347 346 344 342 342 341 338 337 337 337 335 334 334 335 333 334
325 325 329 327 330 333 336 336 334 331 331 331 334 332 330 328 329 330 329 329 331 340 346 350 352 350 347 344 344 343 342 342 341 341 339 338 337 337 335 335 336 336 336 334
326 324 326 332 333 335 335 336 336 336 334 332 331 333 335 327 328 328 328 329 332 336 341 347 351 350 345 341 342 341 340 340 340 340 340 338 337 336 336 336 336 337 336 326
338 332 330 331 336 334 332 337 334 334 334 332 333 335 334 333 329 331 333 335 337 340 346 350 349 345 342 341 340 340 340 340 339 338 338 337 337 336 336 336 338 337 335 333
337 337 333 333 337 334 335 335 335 332 331 331 334 333 331 329 333 332 335 338 341 345 349 350 346 343 340 339 340 340 340 338 337 339 339 337 337 337 337 339 338 335 333 329
337 335 336 335 336 342 335 333 332 332 333 334 332 332 332 330 328 329 332 336 340 348 351 347 343 343 340 339 339 340 339 339 338 332 334 340 338 339 339 338 334 332 330 328
344 342 335 333 332 331 330 330 331 331 331 331 333 333 333 332 331 328 328 332 337 343 347 347 344 342 337 338 341 338 337 336 327 328 330 330 341 340 337 332 329 329 329 331
338 336 338 335 331 330 330 331 329 330 332 332 332 334 334 334 339 341 339 337 346 341 337 334 339 341 340 337 335 332 329 330 329 328 327 329 338 336 332 331 332 330 330 328
340 338 333 331 329 328 329 329 329 328 329 330 335 344 346 343 341 337 335 336 337 338 335 333 335 334 334 334 333 330 330 329 330 328 331 336 334 333 332 328 325 326 324 323
339 335 332 330 328 326 324 325 323 323 322 324 329 342 345 342 338 335 334 336 335 336 334 330 330 330 329 326 326 327 327 326 327 329 332 335 333 325 322 321 321 321 320 319
333 330 329 327 324 321 321 321 320 319 319 319 319 322 327 339 337 335 335 335 335 335 335 333 331 329 328 327 326 325 326 330 333 333 334 329 325 324 319 318 318 318 316 315
327 320 318 318 318 318 321 322 320 320 319 319 319 319 320 321 336 336 336 335 333 331 329 330 329 330 327 324 326 326 331 332 330 328 329 326 323 323 321 319 316 314 313 312
318 317 317 317 317 317 317 318 317 317 317 317 319 319 320 319 323 329 336 336 334 330 329 331 333 334 334 333 333 332 331 329 329 329 329 328 328 326 323 320 318 316 314 313
317 316 316 316 316 316 316 316 315 314 314 314 315 317 320 323 329 333 335 333 333 332 333 333 333 333 333 329 326 327 327 326 328 330 329 326 323 323 323 321 319 316 315 313
318 318 316 316 316 317 316 315 314 314 314 314 315 317 318 326 330 331 331 334 334 333 333 334 333 331 324 321 321 324 327 325 323 326 325 323 321 321 319 318 316 314 313 310
317 317 317 317 316 316 316 316 315 315 315 318 319 318 322 329 327 328 328 329 329 329 326 324 324 323 324 327 328 324 324 323 323 324 324 322 322 320 318 316 315 314 311 307
319 319 318 318 318 317 315 316 319 320 319 322 321 318 328 329 330 328 328 328 327 325 326 328 329 329 328 325 326 325 323 323 324 322 321 320 319 318 318 317 315 313 310 307
320 321 320 321 321 321 319 321 322 322 322 325 325 325 326 327 329 328 326 324 327 327 328 327 327 326 324 322 319 321 322 321 319 320 320 319 318 317 315 315 315 313 311 309
320 320 322 322 321 321 321 321 323 321 318 320 320 320 324 324 325 324 323 322 325 326 325 324 325 324 324 320 317 316 316 315 315 315 316 316 315 314 313 312 311 310 311 310
320 320 320 320 320 319 319 318 320 320 318 321 318 319 320 321 324 325 323 322 323 325 324 322 323 322 319 316 314 313 312 309 310 314 314 314 314 313 312 312 311 310 308 309
317 319 319 319 318 318 319 321 320 320 321 322 322 323 322 322 323 321 319 321 321 322 321 321 320 319 317 316 313 311 308 307 308 311 313 313 313 312 311 308 308 309 307 305
317 318 318 318 319 320 315 319 320 321 321 321 320 319 319 321 321 322 321 321 320 319 318 317 318 318 315 312 311 308 306 306 305 305 305 305 307 308 307 306 307 307 307 304
317 317 318 316 314 315 317 319 319 320 320 320 321 319 318 317 318 319 320 319 318 317 317 316 316 314 312 309 309 307 306 306 304 304 304 304 304 305 305 306 306 306 304 303
317 316 316 315 316 315 316 318 318 318 319 319 319 319 318 317 316 315 316 316 316 316 316 315 313 311 310 309 308 307 306 306 304 304 304 304 303 302 303 303 304 305 304 303
316 314 313 314 315 317 317 317 317 316 316 317 317 319 318 319 318 317 317 315 314 314 313 313 312 311 310 310 309 307 307 306 306 305 304 303 303 302 301 302 303 303 303 303

GFSNGP_925_thetae_003.txt.gz
Theta_e
321 321 323 325 326 325 325 324 328 326 327 331 332 333 334 333 332 333 335 334 335 339 339 341 342 347 349 352 352 351 348 346 343 338 337 343 343 339 335 335 333 331 330 330
321 321 322 323 324 327 327 323 326 324 326 326 332 332 332 332 332 333 335 335 334 336 338 338 341 345 348 351 352 351 349 348 343 338 337 343 341 335 334 334 333 331 331 332
323 323 325 326 326 327 329 329 327 327 326 327 332 333 333 332 333 334 335 339 333 334 335 338 340 344 347 350 351 351 350 346 345 345 341 340 336 336 333 333 332 332 332 333
323 325 329 326 330 330 335 336 335 334 326 328 330 333 333 330 331 330 332 335 340 336 336 341 343 345 347 349 351 350 347 345 343 341 341 340 336 337 335 334 334 333 332 332
325 324 327 334 336 334 333 335 334 335 333 333 330 331 331 328 328 329 328 327 331 343 344 342 346 348 348 347 348 347 345 343 344 342 341 339 338 337 336 335 335 334 333 333
329 327 331 333 333 335 331 336 333 333 333 332 331 335 331 330 328 328 326 329 331 335 339 342 343 349 347 343 344 344 344 344 344 341 340 339 339 336 337 336 336 335 335 335
334 336 334 334 334 333 336 333 334 331 330 330 331 329 327 328 329 330 331 335 337 340 343 343 346 348 344 341 342 343 343 342 343 340 339 337 336 334 331 331 335 336 335 335
339 338 339 332 334 337 332 328 330 331 331 331 331 332 330 330 328 327 327 329 334 339 347 346 346 346 340 340 341 341 341 341 339 338 337 335 335 331 329 329 330 335 334 333
338 335 330 331 330 329 328 329 329 330 329 330 333 330 330 329 331 334 335 337 338 339 344 346 344 344 339 339 340 340 340 338 333 332 329 328 328 330 329 327 330 334 332 329
335 331 333 330 326 326 326 326 326 326 326 326 330 337 338 339 339 337 336 336 340 341 339 339 340 340 339 339 340 340 335 333 332 333 333 331 329 328 329 332 333 330 328 330
334 333 329 324 325 326 323 323 323 323 325 327 330 334 340 338 338 337 335 336 338 336 336 336 338 337 338 337 338 335 333 332 331 329 328 329 331 334 334 332 330 330 329 327
335 332 327 325 322 321 321 320 320 320 320 318 320 324 334 337 336 333 332 335 335 333 334 334 333 333 334 335 336 332 330 327 326 326 326 328 330 327 329 327 324 325 323 322
331 328 325 323 322 322 321 320 319 318 318 318 318 318 319 319 326 334 333 334 333 332 332 332 332 332 329 327 326 326 327 329 328 326 326 329 328 326 318 317 319 319 318 317
324 322 321 321 320 317 317 317 315 314 314 315 317 318 317 317 319 324 333 334 334 331 330 329 327 326 325 326 326 325 326 327 327 328 328 329 327 326 322 317 314 314 314 313
317 318 317 316 315 315 314 314 314 314 313 313 315 315 316 315 318 324 328 333 333 331 331 330 328 327 328 326 324 332 330 329 329 329 330 329 324 323 321 317 315 314 313 313
315 316 316 316 316 316 316 315 315 314 313 313 314 315 315 316 321 326 330 332 329 327 329 328 328 327 331 332 332 331 330 329 329 329 328 326 323 321 319 318 316 315 315 315
316 317 316 316 315 315 315 314 314 314 315 314 315 317 317 318 321 325 328 330 330 328 327 330 333 334 334 331 329 326 325 324 328 328 327 326 325 324 323 319 317 317 316 314
316 316 315 316 316 316 314 313 315 317 316 316 320 319 318 318 321 325 327 329 331 331 332 333 334 332 325 323 324 326 325 324 323 323 325 324 323 322 321 321 318 315 313 310
318 318 318 318 318 316 316 316 317 318 319 321 322 321 320 321 326 326 328 327 327 325 327 327 326 325 325 328 325 323 322 322 322 322 323 322 320 319 318 317 315 314 312 308
318 319 320 319 320 319 318 319 319 319 319 321 321 322 322 323 326 326 326 324 324 325 324 327 327 326 325 324 322 322 321 321 322 321 320 319 318 317 317 316 316 314 312 310
318 319 319 318 317 318 318 317 316 317 317 317 316 318 321 323 325 325 322 319 324 324 325 325 325 323 321 318 317 318 316 315 315 316 318 317 316 314 312 313 314 314 313 311
315 316 317 317 316 315 317 318 318 318 318 319 320 320 319 319 323 323 323 321 322 324 323 324 324 321 317 314 314 314 310 309 310 312 314 314 313 312 312 311 311 311 312 312
314 315 315 315 315 316 317 316 318 319 319 319 319 320 320 320 320 319 319 321 322 323 323 322 322 320 317 316 312 310 308 307 308 308 310 311 313 312 311 311 311 310 309 309
314 315 314 315 315 313 312 315 318 318 319 319 318 316 317 317 319 321 321 321 321 321 320 320 320 319 317 316 312 309 307 306 306 306 307 309 309 308 309 311 308 306 308 308
314 315 314 313 312 311 312 315 317 318 320 319 320 320 318 317 316 318 320 320 320 320 319 317 317 317 316 314 311 308 306 306 305 304 304 305 305 306 307 306 305 306 306 307
313 314 314 313 312 313 314 314 314 316 317 316 318 319 319 318 316 316 316 318 319 318 317 316 315 315 315 314 310 308 308 306 306 305 303 303 303 304 304 304 304 304 305 306
313 312 312 312 313 314 314 315 315 315 316 315 316 317 317 318 318 317 316 316 316 315 315 316 315 314 314 312 310 309 308 306 306 305 304 303 303 303 303 302 302 303 304 304

GFSNGP_925_thetae_009.txt.gz
Theta_e
331 332 327 325 322 324 327 328 331 329 332 333 340 341 343 343 345 343 344 346 349 351 355 356 354 353 352 352 353 353 354 355 351 348 347 347 341 336 333 330 333 333 328 329
326 328 327 325 325 324 325 326 328 328 332 333 337 338 341 342 345 344 344 345 347 349 350 352 351 351 350 352 352 354 355 354 352 350 346 344 339 336 332 329 330 331 331 329
334 325 325 326 326 326 326 327 328 330 331 335 334 337 340 343 345 347 346 344 346 349 350 348 347 348 348 349 351 353 354 353 352 350 346 343 339 336 333 334 330 331 333 333
335 328 327 325 326 326 327 327 329 329 332 337 338 341 339 339 343 346 346 346 344 342 344 344 344 345 346 348 350 352 353 353 351 349 346 343 340 337 335 334 331 334 336 334
333 331 331 329 332 326 325 327 328 330 333 334 333 337 338 335 335 339 340 341 343 339 340 341 341 343 346 348 350 351 353 353 352 349 346 344 341 338 337 335 335 336 337 334
338 336 332 339 337 335 337 332 338 338 339 338 336 336 341 335 335 337 339 341 343 341 341 342 343 344 346 347 349 351 352 353 352 349 347 344 342 338 338 337 335 335 333 333
344 342 334 336 334 335 337 337 337 337 337 337 340 340 337 338 341 342 342 343 345 345 346 346 346 348 349 350 350 351 352 352 351 348 346 345 340 337 337 334 333 333 334 335
344 345 341 331 335 340 339 336 337 338 338 338 338 338 339 339 340 341 342 340 341 344 345 347 347 349 351 350 348 349 350 350 348 345 341 339 337 335 336 335 334 334 333 329
341 341 332 328 331 332 336 336 337 339 338 340 341 342 342 342 343 343 345 345 344 345 346 345 346 348 348 347 346 347 348 346 344 343 339 338 337 335 333 332 334 331 331 327
338 336 330 329 327 327 328 330 332 335 334 335 337 342 345 344 344 344 344 344 343 344 345 344 344 344 344 343 344 344 344 343 343 342 339 337 336 335 334 330 331 328 331 330
334 330 329 327 327 327 327 325 326 326 328 328 330 331 339 342 343 343 343 341 342 344 344 342 342 343 342 342 342 342 341 340 338 337 337 335 333 330 332 331 330 329 327 331
334 331 332 330 325 322 322 322 324 324 324 324 327 329 328 332 335 336 339 341 342 342 342 340 341 341 341 341 340 340 339 337 335 333 332 331 327 324 327 326 326 329 330 330
328 326 324 321 320 321 321 321 320 321 321 321 321 322 324 326 327 328 329 332 339 340 340 340 341 341 340 340 339 338 338 335 333 333 333 332 328 328 327 318 325 326 325 324
323 323 322 320 320 318 319 319 318 318 319 320 320 320 320 321 321 323 326 329 334 338 339 339 340 340 339 338 337 336 336 332 331 330 330 328 328 327 328 326 326 318 317 319
321 320 320 320 319 318 318 319 321 320 320 321 320 321 320 322 322 322 322 325 331 335 337 337 337 337 335 335 334 333 331 329 329 329 330 329 328 327 327 327 325 320 314 312
320 320 320 321 320 320 320 321 321 321 321 322 322 323 322 323 323 322 322 324 329 330 334 336 336 334 331 330 330 330 329 329 328 329 327 327 327 327 326 325 323 320 318 318
321 322 322 322 321 322 321 321 322 322 321 323 324 323 324 325 327 326 326 328 329 331 332 334 334 331 330 330 331 331 332 329 328 329 329 328 327 326 326 324 323 322 321 318
320 320 321 321 321 321 321 322 323 323 323 322 321 322 323 325 328 329 329 329 331 332 330 330 332 332 331 330 330 328 326 328 328 328 327 326 326 324 324 324 323 322 320 316
321 320 319 319 319 320 320 321 321 321 321 320 320 321 324 326 326 328 329 331 332 333 327 328 327 329 329 328 325 325 326 326 326 326 327 325 325 325 325 324 322 321 320 317
319 318 318 318 318 318 320 320 320 320 321 321 322 323 324 323 325 327 329 329 327 326 326 325 326 327 327 323 324 325 325 324 323 323 324 324 324 324 323 322 321 320 318 316
318 318 318 317 317 317 318 319 321 321 322 322 323 324 324 324 324 325 326 328 326 326 326 325 326 325 324 323 323 322 322 322 322 322 322 323 322 322 322 321 320 319 318 314
318 318 317 317 318 317 317 319 320 321 322 322 321 321 322 323 324 325 324 324 325 324 325 323 322 319 319 318 319 318 317 316 316 317 317 318 318 318 318 318 318 318 317 316
317 317 317 318 317 317 316 318 319 321 322 322 322 321 320 320 320 325 324 322 324 322 324 322 319 317 315 316 314 312 312 311 311 311 312 313 314 315 315 314 314 313 313 313
316 317 317 316 316 317 319 317 316 317 319 321 322 321 320 319 319 319 321 320 321 321 322 321 317 316 315 315 313 312 311 311 310 309 308 307 310 312 313 313 313 313 312 312
316 316 317 318 318 317 317 316 316 317 318 319 320 320 320 319 318 317 318 320 320 321 320 319 320 319 318 317 316 314 312 311 310 310 309 308 307 308 309 311 311 310 309 309
315 315 314 315 315 314 315 316 316 316 316 318 319 318 318 318 318 318 318 316 319 319 320 320 318 317 318 317 316 315 313 312 310 309 309 309 308 307 306 307 307 307 307 306
311 308 311 312 311 311 311 312 313 313 313 314 315 315 315 315 316 316 316 316 317 317 317 317 317 316 316 316 315 314 313 312 311 310 310 309 308 307 305 305 306 306 305 305

GFSNGP_925_thetae_015.txt.gz
Theta_e
332 332 331 328 326 325 327 329 333 333 335 337 337 337 336 336 336 336 336 343 350 351 359 361 357 356 354 351 351 350 352 353 354 358 359 359 358 360 360 358 353 346 344 343
332 331 330 330 330 328 327 326 327 329 331 333 335 339 337 335 336 336 336 337 350 352 355 364 361 360 359 356 356 354 356 356 356 360 359 359 359 360 360 358 353 348 344 341
335 334 334 333 331 331 331 330 328 329 329 330 333 336 337 337 337 337 336 339 342 351 353 359 357 361 360 361 358 358 359 363 360 364 364 364 362 361 360 358 352 347 343 340
335 336 339 335 333 331 331 331 332 331 330 330 335 336 337 334 335 337 340 341 341 349 353 356 356 356 357 358 361 362 364 362 364 364 367 366 363 361 360 354 349 347 343 338
336 336 337 337 337 339 341 340 333 332 333 331 329 329 333 334 337 338 336 339 340 348 350 356 357 358 360 359 362 363 364 364 364 365 365 365 363 360 357 351 349 346 343 337
338 338 340 338 340 339 339 339 333 336 337 332 330 328 333 334 333 335 340 340 342 349 350 356 358 356 359 359 360 361 361 362 362 362 363 362 360 357 355 352 347 343 340 337
337 338 336 341 338 337 341 340 346 345 345 343 338 332 333 340 336 337 341 343 349 350 356 358 356 355 360 358 358 356 355 357 359 360 360 360 358 354 351 350 346 343 340 338
336 336 337 339 339 341 345 345 345 345 344 344 344 333 341 347 347 346 346 348 351 355 354 355 354 356 360 358 354 354 355 357 359 361 359 357 355 353 350 345 341 340 339 339
337 339 343 340 341 340 341 345 345 345 344 344 341 346 348 350 351 351 352 351 350 353 353 352 353 354 358 360 358 357 358 359 360 359 356 354 353 349 347 343 341 340 340 341
344 343 340 338 338 339 341 342 345 346 345 345 348 348 349 349 349 350 351 352 351 352 354 359 356 357 361 359 358 358 360 357 355 352 350 349 348 346 343 343 342 342 342 341
346 341 339 337 336 337 337 338 340 341 342 347 348 350 350 351 348 346 346 345 347 350 352 354 355 354 355 356 357 356 351 349 348 347 347 342 339 342 341 340 340 339 340 340
347 339 341 336 332 332 332 332 332 335 335 336 338 340 341 344 347 347 346 345 346 347 350 353 354 354 354 355 353 352 350 348 347 346 342 338 335 332 337 335 334 334 336 334
339 335 330 328 326 324 325 326 326 327 327 328 328 329 329 331 333 333 341 344 346 347 348 350 351 351 351 352 351 351 349 348 346 345 343 342 341 339 337 328 331 329 329 329
329 328 328 326 326 324 325 325 323 325 326 325 326 325 325 325 325 327 331 333 339 346 347 347 348 348 348 349 348 346 344 341 340 340 339 338 336 335 334 333 331 328 325 327
326 326 327 325 324 325 323 324 325 326 325 326 326 328 328 329 328 326 324 326 330 336 345 346 346 345 345 346 346 344 341 339 339 337 336 334 334 334 332 331 331 329 319 319
323 322 322 323 321 323 324 325 322 325 327 326 327 327 329 328 329 328 327 327 330 333 334 340 345 344 344 344 343 341 338 336 335 334 333 332 332 332 331 330 331 329 325 323
321 322 322 324 324 321 323 325 325 325 325 324 325 326 327 328 329 330 330 330 330 331 333 336 341 343 342 341 339 336 335 333 331 333 331 332 332 331 330 329 328 329 328 325
322 322 320 321 323 324 324 324 325 325 325 324 324 326 327 330 332 331 331 331 333 333 335 336 340 340 339 337 335 333 332 332 330 331 330 330 329 328 328 328 326 326 325 323
321 319 319 322 323 323 324 323 324 324 325 325 326 327 328 329 330 331 331 332 334 335 335 337 338 338 338 336 334 333 331 330 329 329 329 329 328 328 327 327 326 325 324 322
321 321 321 321 320 321 323 323 324 324 325 325 326 326 328 328 328 330 331 332 333 334 334 334 335 335 335 333 331 331 330 330 330 329 329 329 327 327 326 325 325 324 324 324
319 319 319 319 320 322 323 323 323 325 325 325 326 327 326 327 328 329 330 331 331 332 332 333 332 331 330 329 328 330 329 329 328 327 327 326 325 325 325 324 323 322 322 322
319 319 319 319 320 321 322 323 324 325 325 325 325 325 325 326 327 327 327 327 327 327 328 328 327 325 327 326 327 327 326 325 325 325 324 324 323 323 323 323 322 322 321 320
319 318 318 319 320 319 319 319 320 322 325 324 324 322 322 322 324 326 328 325 324 323 323 322 320 319 319 321 323 322 322 321 320 319 319 319 319 319 319 319 319 318 319 319
319 319 320 319 318 319 320 318 318 318 319 322 321 321 320 320 319 321 322 321 320 321 322 319 316 314 316 320 319 318 318 317 317 317 317 314 314 314 315 316 317 317 317 316
319 320 319 319 318 318 317 317 318 316 317 320 320 319 319 318 318 317 319 318 316 320 322 317 315 315 316 318 319 318 318 318 317 316 315 315 314 313 313 313 314 315 316 316
317 317 317 317 316 316 315 316 316 316 316 316 316 316 316 316 316 316 319 317 317 317 316 321 320 319 318 317 317 318 318 317 316 315 314 313 313 314 313 313 312 312 312 313
313 311 314 314 313 312 312 313 314 314 314 314 314 315 315 316 316 316 316 316 316 316 316 317 317 317 317 317 316 316 317 316 315 315 315 314 314 313 313 312 311 311 311 311

GFSNGP_925_thetae_021.txt.gz
Theta_e
325 326 328 327 330 327 325 323 324 323 323 324 326 340 338 338 338 337 341 347 344 346 345 347 349 351 353 354 356 362 364 365 363 363 364 364 363 364 360 360 361 357 352 349
328 327 326 326 329 330 327 326 326 326 326 326 328 338 339 338 337 333 336 346 346 346 345 345 346 349 351 353 355 357 362 363 363 362 363 362 363 362 364 361 361 360 355 351
328 329 330 327 326 329 330 328 327 326 325 326 327 332 338 341 336 335 336 345 346 345 350 346 347 348 350 352 354 355 357 361 361 361 361 361 361 362 363 364 362 363 358 354
327 332 334 331 330 330 331 332 328 327 327 328 329 329 331 331 330 331 339 340 347 348 347 353 350 349 350 350 352 353 354 357 359 359 360 361 361 362 362 363 363 363 361 357
330 330 330 330 329 332 332 330 333 338 335 337 339 330 328 331 330 328 327 331 333 344 349 351 354 351 350 349 351 351 351 352 356 358 359 360 361 361 362 361 363 363 362 358
328 330 330 329 330 331 338 340 345 344 343 342 340 339 337 343 340 339 333 330 331 334 343 352 351 355 351 350 350 351 350 353 355 356 358 360 361 362 362 363 364 363 361 359
329 327 328 330 327 336 340 341 344 344 344 344 344 343 341 340 339 341 339 330 331 333 339 350 352 357 355 352 351 353 353 354 358 358 359 362 362 362 364 364 364 362 358 353
332 332 333 339 337 338 339 344 346 343 342 343 343 341 340 339 340 337 346 344 335 332 347 348 354 358 359 359 356 354 362 359 368 365 367 366 366 366 365 360 357 353 350 347
335 345 341 344 345 342 348 351 352 352 351 350 351 351 351 355 350 353 352 354 362 362 363 362 359 360 361 365 365 362 364 368 370 370 370 368 367 359 355 356 351 347 346 344
339 338 339 341 340 346 344 344 343 345 347 347 344 344 345 349 352 357 358 358 361 361 364 365 368 367 368 367 366 367 366 366 364 364 362 360 356 354 351 348 346 345 343 342
339 341 339 344 344 343 342 339 339 337 337 339 340 339 340 341 347 351 353 356 361 364 364 364 365 365 364 364 365 362 359 357 355 353 351 351 350 348 348 347 346 343 343 342
342 332 334 335 336 338 337 336 334 333 333 332 331 331 332 335 337 341 350 351 351 357 359 361 363 360 360 360 358 355 350 350 346 344 343 343 342 340 344 344 344 343 343 342
336 329 328 327 324 327 327 328 330 330 329 328 329 329 330 329 330 331 335 347 352 352 354 356 356 356 356 356 355 351 348 345 344 342 341 339 338 337 330 336 341 341 340 340
329 328 330 327 326 324 327 327 327 328 327 329 327 326 325 326 330 331 333 339 349 350 352 353 354 355 351 352 351 349 347 345 343 341 341 340 338 335 333 330 329 330 331 330
327 327 328 327 327 326 325 324 324 324 326 327 328 329 330 329 328 330 335 337 344 348 348 350 352 353 352 349 349 349 345 344 343 341 340 340 339 335 335 333 331 330 328 328
323 323 322 322 322 324 326 327 326 323 325 327 329 327 326 328 332 334 334 337 337 341 345 346 347 349 345 344 344 348 346 346 345 343 342 341 340 339 334 333 330 327 326 326
324 324 322 320 320 320 320 322 326 324 323 325 326 330 329 324 327 332 336 336 337 339 342 343 344 345 345 344 343 339 335 337 343 341 339 339 339 337 335 333 330 326 324 325
322 322 322 318 319 320 320 322 325 326 326 325 321 327 330 331 331 329 334 333 332 335 336 338 340 340 340 339 339 337 337 334 334 334 333 333 333 332 333 332 329 327 326 324
321 321 322 323 323 324 324 325 325 326 326 326 325 324 327 330 331 333 335 336 335 335 337 335 336 337 337 336 334 332 333 335 332 331 332 333 332 330 330 332 330 329 327 324
322 322 322 323 324 324 325 325 325 325 326 327 326 327 328 330 330 330 332 333 332 334 335 335 335 334 335 336 332 331 330 331 330 330 329 329 327 326 327 328 328 328 327 324
321 322 323 324 324 324 325 324 325 325 326 326 326 326 327 328 328 328 329 328 326 328 329 327 328 330 331 331 329 329 330 330 330 328 328 327 327 328 327 326 326 325 324 323
321 322 321 322 323 324 324 324 324 324 325 325 325 325 325 326 325 323 324 324 322 322 322 320 320 321 324 325 327 328 327 328 328 327 327 327 326 326 325 326 327 326 325 325
319 320 323 323 322 320 322 322 324 325 325 323 322 325 324 324 323 321 321 322 321 318 316 316 315 316 319 321 321 326 326 326 325 324 325 324 320 319 320 324 325 325 325 325
322 320 320 317 317 322 320 320 318 322 322 318 322 318 319 321 322 322 319 319 319 321 319 316 315 315 315 317 318 320 320 319 319 318 318 317 317 316 316 315 317 318 319 323
319 318 316 314 313 315 314 315 316 315 318 316 315 315 316 317 318 320 320 319 317 319 322 319 318 319 319 318 317 318 319 318 317 318 318 316 316 315 315 314 314 314 314 315
313 313 311 310 309 309 310 311 313 313 313 313 313 312 312 316 315 314 315 317 316 317 318 321 317 317 316 317 318 318 318 317 317 318 317 317 316 315 314 315 314 313 313 313
310 310 309 308 307 307 309 309 309 311 310 310 310 313 313 311 311 310 310 312 313 314 316 316 316 316 316 315 315 315 317 317 317 316 316 317 317 316 316 315 314 313 313 312

GFSNGP_925_thetae_027.txt.gz
Theta_e
318 319 320 320 319 320 320 322 323 323 317 317 318 318 318 319 320 327 330 334 336 340 339 338 341 344 348 351 354 353 354 355 355 355 355 355 354 354 353 353 353 354 355 351
319 319 321 322 321 321 321 322 320 321 317 316 318 317 318 318 319 325 331 334 335 339 340 339 341 344 346 350 355 355 355 356 356 356 357 357 356 355 354 353 353 353 354 355
319 318 320 323 322 322 322 322 322 321 320 317 317 317 317 318 319 324 325 332 335 339 340 340 341 344 346 350 352 356 356 356 356 356 356 358 358 357 356 354 354 353 352 353
318 318 325 322 321 323 322 322 320 320 319 319 319 320 320 319 323 326 327 328 333 334 336 341 342 344 345 348 353 356 357 357 358 357 356 356 358 358 358 356 355 355 354 353
320 321 322 323 324 322 321 322 322 322 321 320 320 325 326 327 324 326 327 327 332 335 337 340 342 345 346 348 352 356 357 357 358 359 358 357 357 357 358 358 356 355 354 353
320 322 326 323 331 332 329 324 323 323 322 322 322 322 323 333 329 327 324 323 328 337 339 340 343 346 346 347 350 356 357 357 358 359 359 359 358 358 358 358 359 357 355 355
321 324 324 330 336 337 331 326 337 329 325 326 324 323 325 333 336 333 329 329 329 334 340 339 343 345 347 347 348 352 355 357 358 359 359 359 359 358 359 358 359 358 357 357
321 327 326 334 336 343 339 340 336 334 334 333 338 345 345 343 347 347 346 347 345 323 329 342 341 342 344 346 348 349 351 353 356 357 359 358 358 358 358 358 358 358 359 357
325 328 329 331 334 331 332 338 342 341 345 350 351 352 351 352 352 353 353 353 355 351 347 353 334 344 342 344 346 348 349 351 352 355 358 358 357 357 357 358 358 357 356 352
331 333 334 335 332 331 334 333 332 336 341 346 349 348 347 348 349 351 351 352 353 355 355 353 356 357 345 347 344 345 346 349 350 351 355 356 356 357 357 358 358 355 351 347
330 332 332 334 330 331 332 330 332 331 331 333 337 335 336 337 339 342 344 343 344 345 344 342 340 342 349 353 354 346 345 346 348 349 352 354 353 356 358 358 356 352 350 347
330 330 330 330 328 328 331 330 329 330 329 328 329 329 331 332 332 336 340 343 343 344 345 339 331 328 332 338 347 350 354 349 353 350 342 336 339 338 352 352 349 348 347 343
330 327 328 328 327 326 329 330 329 329 329 330 328 328 329 330 330 332 336 339 333 334 343 344 345 338 333 336 336 335 333 341 338 337 337 340 341 339 333 339 333 332 335 337
327 327 328 327 328 325 326 327 327 327 325 323 327 329 330 331 334 334 335 339 341 342 342 341 343 346 340 335 334 342 340 337 341 341 342 341 339 339 338 337 337 336 341 344
329 327 327 326 325 324 324 325 325 327 328 328 325 324 329 331 331 332 335 337 338 339 339 339 341 340 342 343 343 333 338 338 341 342 340 338 336 334 334 336 337 327 327 338
324 324 323 323 322 323 323 323 323 323 324 326 327 326 322 327 329 331 332 334 335 334 335 333 334 338 342 341 340 333 335 336 338 336 335 332 332 333 331 328 327 329 332 334
323 323 322 321 320 323 324 325 324 322 322 323 324 327 328 329 329 329 330 332 333 334 333 333 331 332 334 339 340 338 338 337 337 335 334 333 333 332 330 328 328 328 330 334
320 320 319 319 321 321 322 323 324 324 325 323 322 325 325 326 326 326 328 330 331 332 333 332 330 330 332 334 336 340 339 339 338 337 335 334 333 333 330 328 327 327 326 328
322 323 324 324 324 324 324 323 324 325 325 326 325 321 323 326 326 325 325 324 323 322 324 328 328 329 328 331 334 340 339 338 338 337 337 335 334 333 331 329 327 327 326 324
323 323 323 324 324 324 324 324 324 325 326 326 326 327 326 325 325 325 324 321 319 317 318 323 324 324 326 327 328 330 331 332 331 333 336 336 334 333 331 330 328 327 327 327
322 321 322 323 323 322 322 322 322 322 323 324 324 323 323 324 322 320 318 314 314 314 315 319 319 318 318 325 326 328 328 329 328 328 328 328 329 330 331 329 328 327 324 323
310 310 311 312 316 318 317 316 319 319 319 321 322 322 321 319 319 319 317 316 315 318 318 317 320 325 319 321 327 328 328 327 327 327 327 327 327 328 328 328 326 326 326 324
306 307 307 308 310 311 311 312 311 312 312 313 313 315 316 316 316 315 315 317 318 318 317 317 317 318 319 323 325 326 327 327 327 327 327 327 327 327 327 327 326 326 327 325
306 306 306 306 306 307 307 308 309 310 311 309 308 308 309 311 311 312 315 316 316 316 316 317 317 317 316 316 316 316 315 316 322 326 326 326 324 325 326 325 325 325 325 324
303 304 304 304 304 304 305 307 308 308 308 306 306 305 305 305 306 308 313 314 313 312 312 315 316 316 315 314 315 315 315 315 315 313 313 312 311 311 312 315 317 319 322 324
301 301 303 302 302 304 305 306 305 305 305 304 303 304 304 304 304 305 304 304 305 305 303 304 307 309 309 310 311 311 313 315 314 313 313 313 312 312 311 310 312 312 313 315
302 302 303 303 304 304 303 303 302 301 302 302 302 302 303 303 302 302 302 302 301 301 301 301 302 305 306 306 308 307 308 310 313 313 312 312 310 308 308 307 306 308 308 307

GFSNGP_925_thetae_030.txt.gz
Theta_e
317 317 318 319 319 319 318 321 322 323 322 320 318 318 319 320 324 324 329 332 334 336 335 336 339 341 342 345 346 348 349 349 350 351 351 351 352 352 352 351 351 351 349 352
317 318 318 319 319 320 320 318 318 321 320 316 318 317 318 319 319 320 322 325 329 336 337 335 338 341 342 345 347 349 349 349 350 351 351 351 351 351 351 352 352 352 350 351
318 317 318 319 318 319 319 318 319 319 320 318 317 317 318 319 318 319 319 324 328 331 337 336 337 340 342 345 348 350 350 350 351 352 352 352 352 352 351 351 352 352 351 349
316 317 321 318 318 320 319 320 318 318 319 320 321 321 319 319 320 319 319 321 326 329 333 338 338 339 341 345 349 351 351 351 352 353 353 353 353 353 353 352 351 352 351 351
317 318 317 318 328 334 334 331 321 320 320 319 319 319 320 318 317 319 320 323 324 329 333 336 338 339 341 344 348 352 352 352 353 354 354 354 355 355 354 353 352 352 351 350
315 320 322 322 333 334 335 338 329 329 321 321 318 320 322 320 325 321 322 323 325 328 333 334 338 340 342 344 348 351 354 354 354 354 354 354 355 355 356 355 354 353 353 352
314 320 320 320 332 335 333 331 337 336 338 322 321 323 322 324 331 325 325 327 328 328 335 335 337 341 343 344 347 349 352 354 355 355 355 354 354 355 355 356 356 354 354 354
314 319 319 327 331 340 334 334 336 336 339 339 319 323 331 334 339 340 347 351 343 338 337 329 339 343 343 344 345 348 352 354 355 356 356 356 356 356 355 356 356 357 356 354
314 315 317 329 331 330 330 335 335 334 335 339 332 344 348 351 351 352 353 352 351 352 353 353 340 341 340 340 344 346 348 353 355 356 357 357 357 357 357 357 357 357 357 356
320 321 325 329 329 329 331 332 331 332 334 343 348 347 348 349 348 347 346 350 351 350 347 346 346 346 348 351 348 346 345 348 350 354 355 357 357 357 357 357 357 357 357 356
318 320 329 330 327 327 331 330 330 330 330 331 338 337 340 341 342 342 341 340 340 338 334 331 329 333 338 345 351 350 345 342 346 349 351 356 356 355 357 357 357 357 357 355
316 319 326 328 326 326 331 331 331 331 332 330 332 334 335 336 336 337 335 333 338 341 341 338 335 331 330 334 336 342 351 349 344 346 348 349 344 345 355 357 357 357 354 350
318 321 325 326 327 327 330 329 328 330 331 334 333 334 336 337 336 336 339 339 339 339 339 340 341 340 337 334 339 339 338 346 344 342 341 340 342 341 333 339 354 349 344 343
320 323 329 327 328 325 326 329 330 329 328 331 333 333 334 335 335 336 336 338 338 336 337 339 339 341 341 341 338 338 337 340 342 340 342 342 344 341 337 336 337 336 335 333
321 325 326 325 324 324 324 325 328 329 329 328 328 332 333 335 335 334 333 334 333 332 332 334 336 337 339 335 332 334 330 337 341 342 341 340 339 336 334 334 334 333 326 332
325 325 324 326 325 325 325 324 324 324 326 328 329 330 330 331 331 332 332 332 332 332 330 330 330 333 339 339 334 332 332 339 338 338 336 334 330 333 335 333 329 331 328 324
324 325 325 325 325 325 325 325 324 323 325 327 327 328 328 328 329 329 330 330 329 328 328 327 327 331 335 339 338 337 337 337 335 334 334 333 328 331 330 330 329 330 329 325
321 322 321 322 323 324 324 324 324 324 323 322 326 326 325 325 324 322 322 322 322 322 324 325 326 328 333 338 338 337 336 336 335 333 332 333 332 330 330 330 330 326 321 326
324 324 324 324 324 324 323 323 323 324 324 322 323 324 324 323 322 319 317 316 316 317 316 319 323 325 328 333 337 336 337 336 335 334 332 331 330 329 328 328 327 326 328 329
324 323 322 321 320 322 323 324 325 324 325 325 324 322 321 320 317 315 314 314 313 314 319 322 320 320 324 327 329 332 333 333 333 333 333 333 332 331 329 327 327 325 324 324
315 317 318 315 314 314 317 320 322 322 321 321 321 320 319 318 316 315 315 316 315 316 317 318 318 318 322 327 327 327 328 329 331 332 333 331 331 330 329 329 329 328 327 325
309 310 314 314 312 311 311 312 313 312 312 313 314 314 313 313 315 314 313 313 315 316 315 315 316 322 323 326 327 326 326 327 327 327 328 329 328 329 330 329 327 326 326 326
306 306 307 307 309 309 309 309 308 307 306 305 306 308 310 310 311 313 313 312 313 315 314 313 315 316 316 317 317 319 320 323 325 326 326 327 327 326 326 325 326 327 327 326
303 304 304 306 307 307 308 307 306 305 304 304 304 304 306 310 307 307 306 306 308 310 309 310 312 314 313 313 314 314 313 313 314 315 315 317 320 323 325 325 325 325 325 326
302 303 302 303 303 304 304 304 304 303 303 303 303 302 302 303 303 302 302 302 303 304 305 307 308 309 310 311 312 312 313 311 311 312 310 310 309 308 309 310 311 315 318 320
300 301 302 302 301 301 302 302 301 301 302 302 301 301 301 301 300 300 300 300 300 300 301 302 304 305 306 306 308 310 311 312 310 311 311 309 307 307 307 307 305 304 305 307
297 297 298 299 301 301 300 299 299 298 298 299 298 298 298 298 298 298 298 298 297 297 298 299 300 302 302 304 306 306 306 307 309 309 308 309 309 306 307 306 305 306 305 304

GFSNGP_925_thetae_033.txt.gz
Theta_e
319 318 319 321 322 322 325 327 329 327 328 327 327 328 329 330 332 334 334 337 342 344 349 350 347 347 346 346 348 349 351 352 354 354 354 354 354 354 353 353 352 352 351 352
317 316 318 321 321 321 322 323 323 325 327 327 326 328 331 331 333 335 331 334 337 343 346 346 348 347 346 347 347 349 351 351 353 354 355 354 354 354 354 354 353 353 352 352
316 317 318 321 321 322 322 322 323 325 324 325 325 327 328 329 332 335 333 334 335 336 341 346 344 345 346 347 347 349 351 352 352 354 355 355 355 355 355 355 354 354 353 352
313 315 319 321 321 322 325 323 323 323 323 324 327 330 331 331 331 333 334 334 336 332 337 341 340 340 344 346 348 350 351 352 352 353 354 354 355 355 355 355 355 355 354 353
313 316 317 317 319 328 334 329 334 330 324 324 325 327 331 329 329 332 333 335 334 330 331 336 340 342 344 347 349 351 352 353 353 352 353 354 355 355 355 355 355 356 355 354
314 313 316 321 322 327 336 331 338 340 339 332 325 328 327 332 330 329 328 330 333 330 333 335 339 341 345 347 350 353 353 353 353 353 354 355 356 356 356 355 355 355 355 355
312 314 314 316 323 335 337 332 340 341 343 343 343 332 333 333 332 331 333 333 330 332 340 342 342 343 347 348 352 351 353 354 355 355 355 356 356 356 357 357 356 355 355 356
312 313 312 316 318 322 335 337 336 338 341 343 343 343 343 337 333 339 345 343 333 339 340 341 345 346 350 353 350 351 353 355 357 356 356 356 357 357 357 357 358 357 357 356
314 311 314 317 322 323 330 333 335 339 340 341 342 342 344 337 350 353 357 356 355 356 351 347 347 349 351 351 350 351 353 355 357 357 358 358 357 357 357 358 359 359 358 357
315 313 316 315 318 320 332 335 337 337 339 339 341 345 343 351 359 360 355 357 356 355 355 351 350 352 353 352 350 352 354 356 357 358 358 359 359 357 358 358 358 359 360 359
314 314 315 316 317 322 326 330 334 335 335 336 344 349 352 356 354 351 347 344 341 341 340 339 339 340 343 351 355 353 351 352 354 356 357 359 359 359 358 357 359 359 359 358
313 313 317 319 319 323 331 331 335 333 336 338 342 346 349 348 346 346 347 346 346 344 343 340 338 337 339 340 346 355 356 352 350 350 353 355 359 353 358 359 359 358 358 358
313 312 314 317 319 323 330 334 332 331 337 340 340 339 338 339 339 339 343 343 344 341 342 342 343 342 339 342 343 344 346 349 348 347 350 351 350 349 350 350 357 357 357 357
313 313 315 315 320 327 330 332 329 331 336 338 338 337 337 338 338 339 341 341 341 343 341 338 338 339 343 341 341 341 341 340 342 344 344 344 345 346 343 342 338 329 336 353
311 311 313 317 327 329 327 329 332 335 336 337 337 338 337 337 337 337 336 336 336 335 335 337 339 339 341 337 337 337 338 341 341 338 338 339 337 337 337 338 340 332 328 332
311 312 314 322 326 327 328 329 333 335 336 335 334 334 335 335 335 333 331 331 333 333 332 334 334 336 340 341 338 338 340 338 340 336 334 333 332 333 334 333 333 331 331 329
319 325 325 324 327 329 328 327 327 328 330 332 332 330 329 327 325 325 326 326 324 324 326 329 332 337 339 341 339 338 338 338 336 340 339 336 332 332 333 332 333 333 332 333
324 324 324 325 326 328 330 329 329 329 328 326 326 327 326 324 322 321 321 322 323 323 322 323 325 332 336 339 341 340 337 336 337 336 336 335 333 333 332 332 331 329 327 329
318 320 322 325 325 326 326 326 326 326 327 326 323 321 319 318 317 318 319 319 322 323 321 322 322 327 331 331 337 339 339 337 336 336 336 333 334 332 333 332 330 324 323 324
317 315 314 315 316 321 324 324 324 323 320 319 319 319 320 319 319 320 319 318 317 317 319 321 324 327 329 329 330 333 337 337 337 336 336 335 334 332 328 327 327 325 325 328
311 311 312 312 311 310 311 313 316 315 315 317 319 318 317 316 315 317 319 319 315 315 317 318 318 324 325 328 329 330 331 332 333 334 333 333 333 333 331 330 329 327 326 326
311 310 310 310 309 308 307 308 310 310 311 314 315 315 316 317 317 314 311 313 312 314 314 315 315 315 318 321 323 324 328 329 328 327 328 329 329 329 329 330 328 326 326 325
307 308 308 308 308 307 306 307 307 308 308 308 309 311 309 309 309 311 310 305 308 309 311 311 312 315 315 315 316 317 318 320 321 321 321 323 325 325 325 326 327 327 326 325
306 306 307 306 307 307 308 305 306 306 306 306 306 306 308 308 305 304 304 303 305 306 305 306 309 311 314 315 314 314 312 313 313 312 313 314 315 317 317 319 320 322 324 325
305 305 305 306 306 306 305 305 305 305 305 304 303 303 303 302 302 302 302 302 302 304 304 304 305 307 309 311 313 310 310 309 309 311 309 308 307 308 310 309 309 311 312 312
301 303 303 303 303 303 304 304 303 303 303 302 301 301 300 300 300 301 300 300 299 300 301 302 303 305 306 306 307 308 309 309 309 307 307 307 308 306 304 305 306 307 307 307
300 299 301 303 302 301 300 300 301 300 300 300 299 298 298 298 297 298 298 299 299 299 299 300 300 301 302 303 303 303 303 303 303 306 309 308 306 305 306 306 305 306 306 307

GFSNGP_925_thetae_036.txt.gz
Theta_e
329 326 325 329 327 328 329 329 330 329 330 330 329 330 330 330 330 330 332 335 337 342 344 348 347 349 353 351 350 351 354 354 357 359 359 359 359 360 360 360 360 359 359 359
326 323 323 325 326 327 328 329 330 330 330 330 330 330 330 331 331 332 333 332 332 336 345 350 350 350 350 352 350 351 354 356 356 359 360 360 360 360 361 360 360 360 360 360
327 325 323 326 326 327 327 328 329 331 330 330 330 330 330 330 331 331 332 333 334 335 340 344 346 348 350 352 351 352 354 357 358 360 361 361 361 361 361 361 361 361 361 361
323 324 327 326 326 326 326 327 327 328 328 329 329 329 329 330 330 330 331 332 334 334 335 336 339 339 342 347 353 354 356 357 358 360 361 362 362 362 362 362 361 362 361 361
321 322 324 324 322 324 326 328 327 328 328 328 327 327 329 328 329 332 332 333 334 333 332 333 335 336 338 345 350 354 357 358 359 359 359 360 363 363 362 361 361 361 360 362
317 321 324 323 323 323 325 332 330 334 334 337 337 330 329 329 329 332 332 332 333 331 331 333 336 338 342 345 348 355 356 357 357 358 359 360 362 362 361 360 360 360 360 361
314 317 319 320 325 330 330 342 337 337 339 340 343 343 343 343 342 340 338 335 334 335 335 335 338 341 343 345 349 352 353 354 356 358 360 360 361 361 361 360 359 360 361 360
314 315 316 316 317 321 326 326 332 333 332 335 336 338 339 341 345 345 343 336 337 341 338 339 347 348 348 356 350 352 353 355 357 359 358 358 361 362 362 361 362 362 361 360
313 313 314 316 317 320 320 322 324 329 330 334 336 338 339 342 347 348 342 342 346 342 344 346 351 349 352 354 353 354 355 357 359 360 360 359 361 362 361 361 359 361 361 360
314 313 314 315 315 317 317 319 323 325 326 329 334 335 338 345 351 347 350 355 354 355 353 356 356 355 355 357 356 356 357 359 360 362 361 361 360 361 361 360 360 359 360 360
315 315 315 314 314 315 317 317 317 320 326 328 329 336 340 350 352 352 357 358 358 358 356 356 356 358 358 357 356 357 359 359 360 360 360 362 361 360 360 359 358 360 360 360
315 314 315 316 315 315 315 314 321 323 328 329 330 339 345 352 353 355 354 350 349 348 347 345 345 347 348 353 358 356 356 355 354 355 357 359 359 361 359 359 359 358 357 356
314 313 314 315 315 316 318 320 322 324 330 333 338 342 347 349 350 349 351 351 349 348 348 349 348 348 347 348 348 349 351 353 354 350 350 351 355 357 359 357 358 358 357 358
311 312 315 314 315 315 317 319 322 323 330 336 338 339 341 343 344 348 348 347 347 344 343 343 344 345 345 346 345 346 342 341 346 347 348 349 348 348 349 350 351 354 346 351
310 311 311 313 315 317 318 322 327 330 332 334 338 339 340 344 343 342 342 341 342 343 344 345 344 342 345 341 344 345 344 344 342 343 343 343 341 336 335 333 331 329 326 325
315 311 310 312 314 315 317 327 330 330 333 334 339 339 340 338 335 333 332 333 335 336 336 340 343 344 342 344 344 343 340 339 340 341 341 340 341 340 335 333 331 331 329 327
315 314 314 316 317 319 325 328 327 330 334 334 335 335 333 332 330 329 329 328 328 328 328 329 335 341 343 343 342 341 340 339 340 342 341 337 338 339 338 336 334 334 329 329
319 320 322 321 323 325 327 327 328 326 327 326 326 326 328 329 330 329 328 327 326 325 326 328 329 335 337 342 341 340 340 341 339 339 339 338 337 337 336 337 336 336 334 331
314 314 315 317 322 324 326 324 323 322 321 321 322 322 322 323 323 323 322 323 324 325 322 326 330 331 332 332 338 339 339 339 340 340 338 336 337 337 336 334 333 332 330 331
314 313 313 313 312 314 317 318 318 319 320 320 320 320 323 321 320 319 319 319 319 319 320 321 326 328 329 330 333 337 338 338 337 336 337 337 336 334 331 328 327 327 330 331
311 311 311 311 311 310 311 312 314 316 317 318 319 318 317 315 314 317 318 319 316 317 318 318 318 324 326 327 330 333 333 334 334 334 335 335 334 333 334 334 332 329 329 330
312 312 312 310 310 310 310 311 312 310 312 312 313 316 317 317 315 312 312 313 312 315 316 317 317 317 319 323 325 326 328 329 327 325 325 327 329 331 331 332 332 331 332 332
311 311 310 310 310 310 310 310 310 310 310 310 312 311 310 309 310 311 312 309 309 309 312 313 316 317 316 315 315 317 318 319 319 322 321 319 319 319 318 320 322 324 324 325
308 309 309 309 309 310 311 310 308 308 308 308 307 306 308 309 309 308 306 306 307 307 306 308 310 313 316 316 312 310 310 313 313 312 313 316 318 318 316 316 316 316 319 319
306 307 307 307 308 308 308 307 308 307 306 305 305 305 305 305 305 304 305 305 304 306 306 305 307 308 310 311 312 311 309 309 309 309 311 312 312 313 314 313 314 315 314 315
302 304 305 305 305 305 306 306 305 304 305 304 303 303 302 302 302 303 303 302 303 303 304 303 303 305 306 306 307 307 307 307 309 309 309 308 309 310 311 312 312 313 312 312
301 299 302 304 304 303 302 302 303 302 302 302 302 301 301 301 300 300 300 300 300 300 301 301 301 301 303 303 303 304 304 305 304 305 306 308 308 307 306 306 307 309 310 310

GFSNGP_925_thetae_042.txt.gz
Theta_e
333 333 334 330 329 330 331 333 334 332 333 335 336 336 337 339 341 343 347 346 350 350 356 357 357 358 358 358 358 358 358 363 364 365 367 366 366 367 367 365 365 364 364 364
334 333 333 335 331 330 330 330 331 332 332 335 336 337 338 341 340 342 343 342 343 341 349 354 362 359 359 358 359 359 360 361 363 364 365 367 366 366 366 367 366 367 366 365
334 334 334 336 334 331 331 331 331 334 335 336 337 337 338 337 337 335 334 336 338 340 346 351 349 353 360 358 356 359 360 362 362 364 365 366 367 366 366 367 367 367 368 367
331 333 339 335 334 332 332 331 331 332 335 337 339 339 337 336 335 338 335 335 340 336 341 338 338 341 348 357 358 357 360 359 363 365 366 367 368 368 368 367 368 368 368 368
330 333 334 334 333 333 332 333 331 334 333 332 334 335 337 334 333 333 335 339 339 338 336 339 340 344 349 351 359 362 359 363 360 365 365 367 369 368 368 368 368 369 368 368
326 330 334 334 331 330 331 333 334 332 332 332 332 333 344 346 343 343 344 346 349 345 345 345 345 342 353 353 357 361 360 360 363 360 365 367 368 369 369 369 369 369 369 368
322 326 329 330 327 329 333 341 337 338 337 333 337 343 343 341 341 342 344 346 345 346 347 345 341 343 348 349 348 357 361 361 361 364 362 366 367 369 370 370 370 370 369 369
320 323 327 324 325 332 334 330 328 330 331 335 337 336 335 335 339 340 343 344 348 349 349 346 343 345 350 352 349 346 346 362 364 365 365 365 368 370 370 371 370 370 369 369
319 320 326 323 322 322 322 324 324 324 324 326 329 328 327 332 336 337 341 344 346 353 348 347 345 347 353 349 354 353 355 361 364 366 368 365 368 370 371 371 371 371 369 369
316 317 319 318 318 318 319 319 319 319 320 320 323 323 324 328 333 337 340 345 345 353 361 361 355 355 356 357 357 362 362 366 366 366 368 368 367 369 369 369 371 370 370 369
315 316 317 316 316 317 317 318 318 318 319 319 320 321 322 329 335 336 342 343 348 357 364 366 362 362 362 362 361 365 366 367 368 367 368 369 367 367 368 368 368 369 368 365
318 317 319 319 318 318 318 318 318 319 320 320 320 323 325 328 332 337 343 344 353 357 357 359 356 361 362 363 364 365 366 366 365 364 366 366 368 366 361 364 364 362 359 361
312 312 314 315 316 315 318 319 318 318 321 320 321 321 323 326 326 331 337 343 351 358 356 356 354 354 355 358 361 365 368 364 363 363 364 367 367 367 365 346 349 353 354 353
308 309 312 313 314 314 315 316 317 318 319 320 319 319 320 323 323 327 338 340 347 355 355 352 352 352 352 354 357 355 353 354 358 360 359 360 362 362 364 358 355 352 346 342
320 319 314 314 315 314 314 314 316 318 318 320 319 320 321 324 328 331 336 341 349 352 351 349 349 351 350 351 352 351 349 350 350 350 349 348 348 348 349 348 347 344 340 336
321 319 319 318 315 315 314 315 316 317 317 319 321 321 321 324 331 331 335 337 347 347 348 347 345 347 349 350 352 348 347 347 348 347 347 345 344 342 343 342 341 340 339 337
319 317 315 316 314 314 314 315 316 317 319 320 323 322 325 328 331 335 336 339 341 343 343 344 345 345 348 349 346 343 344 345 345 344 343 344 343 341 340 341 341 342 338 332
316 317 316 318 315 314 315 317 319 321 322 322 322 325 327 328 332 327 328 336 336 336 338 339 343 341 341 344 345 343 344 344 343 340 341 341 342 342 342 340 339 338 338 333
314 314 315 315 316 316 317 318 317 316 317 318 318 318 317 316 317 317 317 320 320 321 321 331 336 335 337 339 340 340 341 342 341 340 340 340 338 337 336 334 334 333 334 335
313 313 313 314 312 313 314 314 314 315 314 313 312 312 312 312 313 315 315 315 315 317 317 322 328 331 332 333 334 335 336 337 337 335 335 337 337 335 333 333 334 334 333 333
313 313 312 311 312 312 312 312 313 314 313 313 312 311 310 310 309 311 312 312 311 313 316 315 316 320 325 326 328 329 329 330 330 330 330 330 331 331 330 329 329 327 326 327
310 312 312 312 310 310 310 311 310 311 313 311 310 309 309 310 309 309 308 308 308 309 312 315 314 314 315 318 316 317 321 325 325 325 324 323 323 323 324 322 322 321 321 320
306 309 311 310 311 310 309 308 309 309 309 308 309 309 308 308 308 309 309 307 307 307 308 311 315 315 313 312 313 313 312 312 313 315 321 321 319 318 317 317 317 316 316 315
305 308 308 310 309 310 311 309 307 308 309 307 306 306 306 306 306 306 305 305 305 305 305 308 310 312 313 312 310 310 310 310 310 310 312 313 313 313 316 316 314 312 310 309
305 307 307 308 308 309 308 306 307 307 306 305 305 304 304 304 304 303 304 303 304 304 303 303 306 307 308 309 311 310 309 308 309 309 308 308 308 307 308 309 309 311 312 309
305 306 306 306 305 305 305 305 304 303 304 305 304 303 302 302 302 301 302 302 302 302 303 301 302 305 305 305 306 307 306 309 310 309 308 307 307 307 306 305 305 305 303 303
304 303 305 305 304 304 303 303 302 302 301 302 302 301 301 300 300 300 300 300 301 301 301 300 300 301 301 301 302 302 303 303 302 305 307 308 308 307 306 305 304 302 300 299

GFSNGP_925_thetae_045.txt.gz
Theta_e
329 329 330 331 328 327 325 325 329 327 330 331 337 336 337 336 337 340 340 346 349 351 352 353 352 351 351 351 353 355 362 363 364 364 364 363 363 364 363 358 360 360 359 360
333 332 331 333 332 328 327 326 326 328 326 332 333 336 336 336 336 338 340 344 342 346 350 352 354 353 353 352 353 354 358 362 364 365 365 364 365 364 365 364 361 361 362 360
331 332 334 336 334 329 328 328 327 327 328 333 335 336 333 333 333 332 331 332 337 339 343 351 354 355 355 355 354 354 355 358 363 364 365 365 365 366 365 366 366 363 363 363
328 332 337 333 333 333 329 329 327 327 334 332 334 337 335 333 331 333 336 336 333 338 336 339 353 356 356 356 357 356 356 357 357 363 364 365 365 365 366 366 366 367 365 364
327 332 333 334 329 329 333 339 336 340 335 335 338 342 344 342 342 343 343 344 344 345 345 344 342 341 358 358 358 360 359 360 359 362 363 364 364 365 365 365 365 365 366 366
324 333 338 328 326 324 328 338 330 335 341 335 340 347 345 340 340 340 341 342 346 346 345 344 343 342 350 358 358 358 360 362 363 362 364 364 365 365 366 366 365 365 366 366
320 325 331 322 322 328 337 335 326 325 330 332 332 333 332 334 337 339 340 340 342 345 349 349 344 343 346 345 351 360 358 356 359 360 363 365 365 366 366 366 366 366 366 366
319 324 330 320 320 322 327 324 323 322 322 325 324 323 323 327 333 334 338 339 341 342 345 348 352 345 344 350 344 343 355 360 359 359 360 364 366 367 368 367 367 367 367 368
317 318 318 318 318 318 318 319 319 319 318 319 321 322 322 322 330 332 333 339 340 341 347 349 357 352 348 348 354 359 345 359 359 359 359 362 363 367 369 368 368 368 368 368
314 315 314 317 316 315 315 317 317 316 317 318 319 320 320 320 329 330 334 336 339 342 347 358 362 363 363 364 360 354 355 360 364 365 365 365 363 365 369 370 369 369 368 368
312 312 312 315 313 313 314 314 317 317 318 318 319 321 323 323 325 324 325 335 335 342 344 356 357 360 360 361 362 367 359 366 368 367 367 368 366 368 369 368 369 369 369 368
312 310 310 310 310 311 311 312 313 316 318 319 320 318 323 321 321 322 321 320 334 337 343 353 354 355 355 355 358 360 368 368 370 368 367 368 366 353 358 365 367 367 367 368
309 310 310 309 310 311 311 312 312 314 316 318 317 319 319 319 319 321 322 321 333 334 342 345 355 353 353 353 355 358 357 367 364 366 365 368 368 361 342 342 349 350 353 355
311 314 314 311 311 312 314 313 314 315 315 316 317 319 319 317 320 321 323 324 334 337 340 347 352 352 351 352 351 354 353 353 358 364 362 366 365 367 351 340 339 336 333 335
318 318 313 312 313 314 315 316 314 313 314 315 317 317 318 318 318 319 323 333 332 334 338 350 351 350 350 350 352 352 352 352 352 351 351 350 351 351 351 349 344 337 335 335
316 316 316 315 315 317 317 316 315 314 314 314 315 316 318 321 322 324 325 330 335 334 337 347 348 346 347 349 351 352 347 347 346 346 345 343 344 343 342 340 339 337 336 334
313 315 317 315 314 315 315 314 313 314 315 315 314 316 318 321 322 323 325 328 336 333 329 331 338 345 344 347 348 344 345 346 346 346 344 341 341 341 341 341 340 336 332 330
311 312 312 315 316 316 316 316 315 314 314 316 318 320 321 320 318 319 320 321 320 322 321 324 332 339 343 347 347 347 344 345 344 341 341 342 339 338 335 335 335 334 333 333
310 310 311 312 312 312 313 312 313 312 312 315 320 317 317 317 316 314 315 315 316 317 316 320 329 330 333 339 341 344 340 340 340 337 336 335 334 333 333 333 333 334 334 333
311 309 309 309 310 311 311 310 309 309 309 310 311 311 311 311 312 312 312 311 312 315 315 318 320 318 321 329 333 333 334 334 335 336 334 333 333 332 330 331 330 329 328 328
311 310 309 308 308 309 309 308 309 308 307 307 308 309 309 309 308 309 310 310 310 313 314 315 314 314 315 316 323 326 327 327 327 328 328 327 325 325 325 324 323 322 322 322
305 310 310 308 308 308 307 307 307 306 307 308 307 307 307 307 307 308 307 307 308 311 313 313 313 314 313 312 312 313 313 317 322 321 320 321 320 319 318 317 316 316 315 314
305 307 309 310 309 308 308 308 306 306 306 305 304 305 307 307 306 307 307 306 306 308 308 312 311 311 313 312 311 310 310 311 312 313 314 316 315 314 313 311 309 309 309 309
306 308 308 309 308 307 306 305 305 305 306 306 306 305 304 304 305 305 305 307 306 306 307 308 310 311 310 310 309 310 311 310 309 309 308 309 308 308 312 311 308 305 304 302
306 308 306 305 305 307 305 303 302 302 303 302 302 301 301 301 302 302 302 303 303 302 303 306 307 306 307 309 309 309 308 309 309 309 309 307 306 305 305 304 303 304 304 302
305 305 306 305 303 303 304 302 301 301 301 302 301 300 300 300 300 300 301 300 301 300 300 301 301 301 301 302 303 302 302 307 308 307 306 306 305 304 303 302 301 299 299 298
302 302 302 302 301 302 302 300 300 300 300 299 299 299 300 300 300 299 299 300 300 300 300 300 300 300 300 301 301 301 301 301 301 302 304 303 304 304 303 302 301 300 299 298

GFSNGP_925_thetae_048.txt.gz
Theta_e
315 317 320 322 327 325 321 321 323 322 324 323 322 326 329 329 329 338 347 349 351 350 349 348 347 347 349 351 353 357 357 358 358 357 358 359 359 358 356 354 355 356 350 354
313 321 325 327 331 330 324 323 323 321 323 322 327 330 334 336 335 339 346 350 352 351 350 350 348 348 348 350 352 355 358 359 358 359 359 359 360 360 359 357 355 354 356 355
319 326 330 332 326 331 326 323 322 324 322 331 334 339 340 328 330 335 338 348 352 351 350 350 350 349 348 349 350 354 357 357 359 359 361 360 360 360 361 361 359 356 356 356
317 323 334 327 322 323 329 328 328 334 335 335 343 342 341 342 344 344 343 342 340 338 341 350 351 350 349 349 350 351 353 358 359 361 361 362 362 361 361 362 362 361 359 358
321 329 331 327 323 322 322 326 322 328 337 342 340 339 339 337 339 341 343 343 341 340 340 345 350 352 351 350 350 351 352 352 359 360 362 363 363 363 362 363 363 363 363 362
316 331 335 324 322 321 325 325 320 322 324 330 335 338 335 331 336 337 338 340 341 346 348 345 343 348 353 353 353 353 352 353 354 357 361 362 363 363 364 363 364 364 364 364
318 331 329 319 320 322 328 327 319 319 321 321 322 323 323 329 330 334 336 338 340 344 346 350 351 341 346 352 355 355 356 355 355 355 356 360 361 362 362 363 363 363 363 363
319 327 329 316 319 321 316 316 317 317 317 318 318 320 320 327 327 331 334 336 340 343 347 359 359 348 342 343 345 350 357 357 359 359 358 359 360 361 362 362 363 363 363 363
315 319 316 314 318 316 313 314 313 314 316 316 317 319 320 323 322 321 328 330 336 340 346 354 362 359 360 362 359 358 349 352 358 360 361 362 362 362 362 363 363 364 364 364
309 311 311 311 311 311 310 311 311 311 313 316 316 318 319 319 319 319 319 319 330 336 339 345 357 358 358 359 360 363 361 354 357 360 359 361 362 363 364 364 365 364 365 365
310 309 310 311 311 310 311 311 311 311 311 315 316 315 318 317 317 317 317 319 324 332 336 339 351 354 353 353 353 358 360 365 361 358 361 362 361 363 364 365 366 366 366 366
312 310 310 309 309 310 312 312 312 311 311 311 315 315 317 316 315 316 317 319 322 330 336 336 342 352 353 351 348 352 356 357 362 366 367 364 358 352 358 363 366 368 367 367
316 311 310 309 309 310 313 312 312 312 311 311 314 315 315 315 315 318 316 320 328 333 333 332 335 350 351 350 351 349 350 354 351 358 365 364 352 350 342 342 352 360 365 367
313 316 314 313 315 313 311 312 313 314 313 312 314 315 315 315 317 316 317 324 327 329 331 329 330 346 351 350 350 350 350 352 352 354 359 364 362 351 344 339 336 335 339 346
313 314 313 313 313 313 313 313 315 316 314 311 312 314 314 314 317 319 321 325 326 326 328 331 332 335 348 348 348 350 351 350 351 355 356 360 363 359 346 341 333 332 333 333
311 312 314 315 315 315 314 314 314 313 313 312 311 312 314 315 318 320 323 323 325 326 330 330 335 339 344 346 345 348 350 347 347 348 348 349 349 350 346 340 333 333 333 333
311 311 312 313 312 312 312 312 310 311 312 313 314 316 314 318 318 319 321 322 323 321 322 323 329 336 342 344 344 344 348 346 345 344 344 344 344 340 339 337 335 331 330 334
309 309 310 311 310 310 310 310 309 309 311 312 314 315 315 315 315 316 317 318 318 319 319 319 323 333 338 341 343 345 348 344 345 343 340 339 338 339 338 335 332 330 329 332
309 309 309 309 309 309 308 308 307 307 307 310 315 314 313 313 313 313 313 313 315 316 315 317 319 327 331 333 339 341 344 342 339 337 335 334 333 332 332 332 332 333 333 333
308 308 308 308 308 306 307 306 306 306 306 306 307 309 309 309 310 312 312 311 311 313 314 315 318 318 322 326 329 335 337 335 333 332 332 331 331 329 328 327 327 326 325 324
310 308 307 307 307 306 305 304 304 304 304 305 306 306 307 308 307 307 309 310 309 311 312 313 314 315 314 318 320 323 325 328 329 328 326 325 323 322 321 320 318 318 317 316
304 309 308 307 307 307 305 304 304 303 303 302 303 305 304 304 306 307 306 306 307 310 311 311 311 312 313 314 313 312 313 315 318 318 318 317 316 315 313 313 311 311 312 312
304 307 309 309 308 308 307 306 305 304 304 303 303 303 304 303 303 304 305 305 307 308 310 310 309 309 311 311 312 312 311 311 309 309 311 310 308 307 305 304 304 304 304 305
305 305 304 307 304 303 301 302 302 304 303 302 301 302 302 303 305 303 301 303 305 306 306 308 308 309 308 309 310 310 309 309 308 307 309 307 306 306 305 303 302 300 298 298
303 303 303 302 303 301 301 300 301 301 300 300 300 300 301 301 300 302 302 301 303 303 303 303 304 303 302 304 307 307 307 307 307 306 306 305 304 304 303 302 300 299 298 297
301 300 300 300 300 301 300 299 300 300 299 298 298 299 299 300 300 300 300 300 300 301 301 301 302 302 301 301 301 305 307 305 304 304 303 303 302 302 301 299 298 298 297 297
300 300 300 300 301 300 299 299 299 298 298 298 297 299 300 299 298 299 299 299 299 300 300 300 301 301 301 301 301 300 299 299 299 299 299 300 301 301 300 299 299 298 297 297